Погода в Медведеве

Россия / Липецкая область     53°04′28″N   38°49′37″E
темп.,
°C
ветер,
м/с
пор.,
м/с
влажн.,
%
обл.,
%
осадки,
мм/ч
давл.,
гПа
погр.,
м
16 мая, вс
вс1600:00+14юз33840 0.0 101332
03:00+13ююз33875 0.0 101427
06:00+14ю118348 0.0 101325
09:00+19ю23672 0.0 1014413
12:00+23ю45509 0.0 10142102
15:00+24ююз344513 0.0 10142109
18:00+23ююв225846 0.0 1013311
21:00+18всв226289 0.0 101312
17 мая, пн
пн1700:00+16всв477218 0.0 1013110
03:00+15всв499097 0.1 1013177
06:00+15всв49915 0.0 1012190
09:00+21вюв686998 0.0 1012393
12:00+24юв69535 0.0 1011805
15:00+26вюв7125235 0.0 10101584
18:00+23юв7136497 0.0 1010670
21:00+19вюв616731 0.0 1010396
18 мая, вт
вт1800:00+18юв6166667 0.0 1009409
03:00+16юв5137199 0.0 1009293
06:00+15юв4117543 0.0 1009237
09:00+20юв61160100 0.0 1009422
12:00+24юв7104885 0.0 1009833
15:00+26вюв61150100 0.0 10081667
18:00+23юв71465100 0.0 1007695
21:00+19вюв51477100 0.0 1006331
19 мая, ср
ср1900:00+18юв4107487 0.0 1006214
03:00+16юв4128398 0.0 1007379
06:00+16юв489197 0.1 1007301
09:00+19ю5874100 0.1 1008740
12:00+19ююв71070100 0.0 10081124
15:00+21юв6963100 0.1 10071199
18:00+18ююв5981100 1.3 1007626
21:00+15юз3694100 2.9 1006231
20 мая, чт
чт2000:00+13юв359657 0.0 1007115
03:00+12ююв4997100 0.0 1007268
06:00+12ю499668 0.0 1008415
09:00+13ююз588599 0.1 1009746
12:00+15ююз677786 0.1 10111043
15:00+14ююз6880100 0.4 1013703
18:00+13юз5985100 0.0 1014676
21:00+11ююз3792100 0.1 1014139